Christchurch, New Zealand

4:49 AM NZDT on October 18, 2017 (GMT +1300)
Christchurch International

Weather History for NZCH - October, 2012

Change the Weather History Date:

Friday, October 5, 2012

  Actual Average Record
Temperature  
Mean Temperature 55 °F -  
Max Temperature 71 °F 60 °F 71 °F (2012)
Min Temperature 39 °F 41 °F 28 °F (2002)
Degree Days  
Heating Degree Days 10    
Growing Degree Days 5 (Base 50)    
Moisture  
Dew Point 42 °F    
Average Humidity 66    
Maximum Humidity 93    
Minimum Humidity 33    
Precipitation  
Precipitation 0.00 in - - ()
Sea Level Pressure  
Sea Level Pressure 29.34 in    
Wind  
Wind Speed 9 mph ()    
Max Wind Speed 23 mph    
Max Gust Speed 36 mph    
Visibility 6.2 miles    
Events      
Averages and records for this station are not official NWS values.
T = Trace of Precipitation, MM = Missing Value Source: Averaged Metar Reports

Daily Weather History Graph

Daily Weather History Graph

Search for Another Location

Airport or City:

Trip Planner

Search our weather history database for the weather conditions in past years. The results will help you decide how hot, cold, wet, or windy it might be!

Date:

Astronomy

Oct. 05, 2012 Rise Set
Actual Time 6:55 AM NZDT 7:41 PM NZDT
Civil Twilight 6:26 AM NZDT 8:10 PM NZDT
Nautical Twilight 5:52 AM NZDT 8:44 PM NZDT
Astronomical Twilight 5:17 AM NZDT 9:20 PM NZDT
Moon No Moon Rise 9:21 AM NZDT (10/5)
Length of Visible Light 13h 43m
Length of Day
12h 45m
Waning Gibbous, 80% of the Moon is Illuminated
Oct 5
Waning Gibbous
Oct 8
Last Quarter
Oct 16
New
Oct 22
First Quarter
Oct 30
Full

Hourly Weather History & Observations

Time (NZDT) Temp. Windchill Dew Point Humidity Pressure Visibility Wind Dir Wind Speed Gust Speed Precip Events Conditions
12:00 AM 48.2 °F - 42.8 °F 82% 29.65 in 6.2 mi ENE 9.2 mph - N/A   Partly Cloudy
1:00 AM 48.2 °F - 42.8 °F 82% 29.65 in - East 8.1 mph - N/A   Clear
2:00 AM 48.2 °F - 42.8 °F 82% 29.62 in - East 9.2 mph - N/A   Clear
3:00 AM 44.6 °F 41.4 °F 41.0 °F 87% 29.59 in - NE 5.8 mph - N/A   Clear
4:00 AM 41.0 °F 37.1 °F 37.4 °F 87% 29.56 in - ENE 5.8 mph - N/A   Clear
5:00 AM 39.2 °F 35.0 °F 35.6 °F 87% 29.53 in - NE 5.8 mph - N/A   Clear
6:00 AM 39.2 °F 37.0 °F 35.6 °F 87% 29.50 in - NE 3.5 mph - N/A   Clear
7:00 AM 42.8 °F 38.6 °F 41.0 °F 93% 29.50 in - NE 6.9 mph - N/A   Clear
8:00 AM 44.6 °F 41.4 °F 41.0 °F 87% 29.47 in - NE 5.8 mph - N/A   Clear
8:45 AM 57.2 °F - 41.0 °F 55% 29.42 in - NNW 19.6 mph - N/A   Clear
9:00 AM 57.2 °F - 39.2 °F 51% 29.42 in - NW 19.6 mph - N/A   Clear
10:00 AM 57.2 °F - 41.0 °F 55% 29.42 in - NNE 6.9 mph - N/A   Clear
11:00 AM 57.2 °F - 42.8 °F 59% 29.36 in - NE 10.4 mph - N/A   Clear
12:00 PM 64.4 °F - 39.2 °F 40% 29.33 in - NNW 19.6 mph - N/A   Clear
1:00 PM 66.2 °F - 41.0 °F 40% 29.27 in - NNW 17.3 mph 28.8 mph N/A   Clear
2:00 PM 64.4 °F - 41.0 °F 42% 29.21 in - North 13.8 mph 26.5 mph N/A   Clear
3:00 PM 68.0 °F - 39.2 °F 35% 29.18 in - WNW 17.3 mph 28.8 mph N/A   Clear
4:00 PM 71.6 °F - 41.0 °F 33% 29.15 in - NW 20.7 mph 34.5 mph N/A   Clear
5:00 PM 69.8 °F - 39.2 °F 33% 29.15 in - WNW 23.0 mph 35.7 mph N/A   Clear
6:00 PM 64.4 °F - 42.8 °F 45% 29.12 in 6.2 mi NNW 20.7 mph 33.4 mph N/A   Scattered Clouds
7:00 PM 57.2 °F - 50.0 °F 77% 29.09 in 6.2 mi North 11.5 mph - N/A   Scattered Clouds
8:00 PM 55.4 °F - 48.2 °F 77% 29.09 in 6.2 mi North 10.4 mph - N/A   Partly Cloudy
9:00 PM 53.6 °F - 48.2 °F 82% 29.09 in 6.2 mi North 6.9 mph - N/A   Partly Cloudy
10:00 PM 51.8 °F - 46.4 °F 82% 29.12 in 6.2 mi SSW 4.6 mph - N/A   Partly Cloudy
11:00 PM 53.6 °F - 39.2 °F 58% 29.12 in 6.2 mi NNW 9.2 mph - N/A   Partly Cloudy